Погода в Ермакове

Россия / Вологодская область     59°11′34″N   39°42′23″E
темп.,
°C
ветер,
м/с
пор.,
м/с
влажн.,
%
обл.,
%
осадки,
мм/ч
давл.,
гПа
погр.,
м
19 апреля, пн
пн1900:00+3всв51067100 0.0 1031409
03:00+1всв497624 0.0 1031308
06:000всв410805 0.0 1032339
09:00+4в69550 0.0 1032836
12:00+7в68405 0.0 10311539
15:00+8в67385 0.0 10311749
18:00+7в57465 0.0 10301466
21:00+3в4106324 0.0 1031273
20 апреля, вт
вт2000:00+1в410720 0.0 1032288
03:00−1в410805 0.0 1032249
06:00−1в411730 0.0 1031335
09:00+4вюв69411 0.0 1030851
12:00+8вюв693682 0.0 10281446
15:00+9вюв793896 0.0 10261716
18:00+8вюв6946100 0.0 1024933
21:00+5вюв5125811 0.0 1023368
21 апреля, ср
ср2100:00+3в61363100 0.0 1020543
03:00+2в71463100 0.0 1017557
06:00+2в81560100 0.0 1013853
09:00+1в81696100 1.7 1010865
12:00+1вюв81597100 2.2 1007854
15:00+1вюв71698100 4.2 1005796
18:00+2вюв71598100 1.8 1003920
21:00+3ююв61198100 3.4 1003825
22 апреля, чт
чт2200:00+2ююз71395100 0.1 1006894
03:00+2ю61294100 0.1 1008781
06:00+3ю61293100 0.0 1009660
09:00+4ю61191100 0.1 1010893
12:00+4ююз61297100 0.3 1012760
15:00+8юз71277100 0.7 10121146
18:00+8ююз61278100 0.1 1014819
21:00+6ююз5138872 0.2 1015378
23 апреля, пт
пт2300:00+4ю4119169 0.0 1016219
03:00+3ю38935 0.0 1016141
06:00+4ююв39966 0.0 1015196
09:00+10ююв598036 0.0 1015486
12:00+14ю7106751 0.2 10141299
15:00+15ю7116350 0.6 10131400
18:00+13ю71367100 0.8 1012954
21:00+10ююв7157653 0.8 1012526